Home   Weather   Sanandaj   Past weeks

Flag for Iran Past Weather in Sanandaj, Iran — Yesterday and Last 2 Weeks

Now
61 °F

Sunny.


Feels Like: 61 °F
Forecast: 52 / 74 °F
Wind: No wind

Location: Sanandaj Airport

Current Time: Apr 23, 2017 at 10:37:41 am

Latest Report: Apr 23, 2017 at 9:30 am


Visibility: 10 mi

Pressure: 30.15 "Hg (25.25 "Hg at 1502m altitude)

Humidity: 39%

Dew Point: 36 °F

Location of SanandajLocation

Past Weather in Sanandaj — Graph

°F

Sanandaj Temperature Yesterday

Maximum temperature yesterday: 82 °F (at 3:30 pm)
Minimum temperature yesterday: 43 °F (at 6:30 am)
Average temperature yesterday: 62 °F

High & Low Weather Summary for the Past Weeks

 TemperatureHumidityPressure
High82 °F (Apr 22, 3:30 pm)94% (Apr 12, 4:21 am)30.21 "Hg (Apr 12, 4:21 am)
Low39 °F (Apr 17, 6:30 am)8% (Apr 13, 2:24 am)29.98 "Hg (Apr 8, 3:30 pm)
Average58 °F51%30.08 "Hg
* Reported Apr 8 9:30 am — Apr 23 9:30 am, Sanandaj, Weather by CustomWeather, © 2017

Note: Actual official high and low records may vary slightly from our data, if they occured in-between our weather recording intervals... More about our weather records

Advertising

Sanandaj Weather History for the Previous 24 Hours

Scroll right to see more
 ConditionsComfort  
Time TempWeatherWind HumidityBarometerVisibility
9:30 am
Sun, Apr 23
61 °FSunny.No wind39%30.15 "Hg10 mi
8:30 am52 °FSunny.2 mph67%30.15 "Hg10 mi
7:30 am46 °FClear.No wind76%30.15 "Hg6 mi
6:30 am46 °FClear.No wind76%30.12 "Hg6 mi
6:24 am46 °FClear.No wind76%30.12 "Hg6 mi
5:26 am46 °FClear.No wind71%30.12 "Hg6 mi
4:25 am50 °FClear.No wind67%30.12 "Hg6 mi
3:26 am50 °FClear.No wind62%30.12 "Hg6 mi
2:31 am52 °FClear.No wind62%30.15 "Hg6 mi
1:26 am54 °FClear.No wind58%30.15 "Hg6 mi
12:24 am55 °FClear.No wind55%30.12 "Hg6 mi
10:24 pm
Sat, Apr 22
63 °FPassing clouds.2 mph34%30.15 "Hg6 mi
9:25 pm68 °FPassing clouds.5 mph24%30.12 "Hg6 mi
8:24 pm70 °FPassing clouds.7 mph20%30.09 "Hg6 mi
7:21 pm77 °FPassing clouds.7 mph13%30.07 "Hg6 mi
6:22 pm81 °FPassing clouds.7 mph13%30.07 "Hg6 mi
5:30 pm82 °FPassing clouds.9 mph10%30.07 "Hg6 mi
4:30 pm82 °FPassing clouds.2 mph13%30.09 "HgN/A
3:30 pm82 °FPassing clouds.2 mph13%30.09 "HgN/A
2:30 pm79 °FPassing clouds.2 mph15%30.12 "HgN/A
1:30 pm75 °FSunny.2 mph21%30.15 "Hg10 mi
12:30 pm72 °FSunny.5 mph27%30.18 "Hg10 mi
11:30 am64 °FSunny.2 mph34%30.21 "Hg10 mi
10:30 am61 °FSunny.No wind39%30.21 "Hg10 mi
Weather by CustomWeather, © 2017

See weather overviewHow to use our weather pages